[[{"header":{"parameterUnit":"m.s-1","parameterCategory":1,"la1":30.2991,"la2":30.254,"lo1":-89.0895,"lo2":-89.0444,"dy":0.0017,"dx":0.0017,"nx":28,"ny":28,"refTime":"2025-01-13T09:00:00:Z","depth":0,"parameterNumber":2,"parameterNumberName":"U-component_of_WINDS"},"data":[0,0,0,0,0,0,0,0,0,0,0,0,0,0,0,0,0,0,0,0,0,0,0,0,0,0,0,0,0,0,0,0,0,0,0,0,0,0,0,0,0,0,0,0,0,0,0,0,0,0,0,0,0,0,0,0,0,0,-1.019,-1.0191,0,-1.0238,-1.0238,-1.0239,-1.0216,-1.0215,-1.0213,-1.0212,-1.0265,-1.0268,-1.027,0,0,0,0,0,0,0,0,0,0,0,0,0,-1.0085,-1.0087,-1.019,-1.0191,-1.0192,-1.0237,-1.0238,-1.0239,-1.0216,-1.0215,-1.0213,-1.0212,-1.0265,-1.0268,-1.0271,0,0,0,0,0,0,0,0,0,0,0,0,0,-1.0131,-1.0087,-1.019,-1.0186,-1.0186,-1.0237,-1.0238,-1.0239,-1.0216,-1.0215,-1.0213,-1.0211,-1.0264,-1.0267,-1.0271,-1.0332,0,0,-1.0283,-1.0284,0,0,0,0,0,0,0,0,-1.0129,-1.0135,-1.0186,-1.0186,-1.0186,-1.0219,-1.022,-1.027,-1.0217,-1.0205,-1.0212,-1.021,-1.0252,-1.0256,-1.0269,-1.0334,-1.0336,-1.0283,-1.0285,-1.0287,-1.0288,0,0,0,0,0,0,0,-1.0125,-1.0133,-1.0209,-1.0187,-1.0187,-1.0183,-1.0187,-1.023,-1.0238,-1.0206,-1.0204,-1.021,-1.0252,-1.0266,-1.0271,-1.0337,-1.0283,-1.0286,-1.0289,-1.029,-1.0454,-1.0456,0,0,0,0,0,0,-1.0122,-1.013,-1.0208,-1.0211,-1.0152,-1.0186,-1.0191,-1.021,-1.0238,-1.024,-1.0211,-1.0209,-1.026,-1.0266,-1.0272,-1.0346,-1.0287,-1.0291,-1.0293,-1.0452,-1.0455,-1.0457,0,0,0,0,0,0,-1.012,-1.0129,-1.0206,-1.017,-1.018,-1.019,-1.0212,-1.0212,-1.0226,-1.0242,-1.0244,-1.0224,-1.0259,-1.0267,-1.0317,-1.0347,-1.0292,-1.0296,-1.045,-1.0453,-1.0456,-1.0493,0,0,0,0,0,0,-1.0117,-1.0128,-1.015,-1.0171,-1.0181,-1.0248,-1.0213,-1.0214,-1.0233,-1.0229,-1.0254,-1.0257,-1.0258,-1.0311,-1.0321,-1.0352,-1.0299,-1.0447,-1.0451,-1.0455,-1.0489,-1.0497,-1.0503,0,0,0,0,0,-1.0113,-1.016,-1.0152,-1.0161,-1.0209,-1.025,-1.0257,-1.0256,-1.0235,-1.0258,-1.0268,-1.0256,-1.0342,-1.0316,-1.0327,-1.036,-1.0445,-1.045,-1.0455,-1.0486,-1.0495,-1.0503,0,0,0,0,0,0,-1.0145,-1.0162,-1.0154,-1.0208,-1.0228,-1.0246,-1.0275,-1.0266,-1.0293,-1.0289,-1.0288,-1.0294,-1.0346,-1.0357,-1.0329,-1.042,-1.0391,-1.0398,-1.0411,-1.042,-1.0427,-1.0424,-1.0302,0,0,0,0,0,-1.0157,-1.0188,-1.0202,-1.0249,-1.0259,-1.0265,-1.0283,-1.0281,-1.0302,-1.031,-1.0324,-1.0346,-1.0378,-1.0399,-1.0429,-1.049,-1.0496,-1.0517,-1.0524,-1.053,-1.0537,-1.0571,-1.0581,-1.0472,-1.0472,-1.0472,0,0,-1.0186,-1.0199,-1.0218,-1.0256,-1.0271,-1.0304,-1.0273,-1.0309,-1.0334,-1.0316,-1.0364,-1.0375,-1.0399,-1.0455,-1.048,-1.0466,-1.0568,-1.0536,-1.0541,-1.0544,-1.0577,-1.0587,-1.0596,-1.0476,-1.0475,-1.0474,0,0,-1.0253,-1.0266,-1.0306,-1.0322,-1.0344,-1.0347,-1.0357,-1.0377,-1.0383,-1.043,-1.0418,-1.0448,-1.0503,-1.0521,-1.0538,-1.0612,-1.0602,-1.0621,-1.066,-1.0693,-1.0702,-1.0709,-1.0737,-1.0747,-1.0628,-1.0628,-1.0628,0,-1.0286,-1.0334,-1.0329,-1.0366,-1.0383,-1.0367,-1.0409,-1.0424,-1.0456,-1.0469,-1.0452,-1.0521,-1.0536,-1.0596,-1.0614,-1.0627,-1.064,-1.062,-1.0701,-1.0708,-1.0715,-1.0742,-1.0752,-1.063,-1.063,-1.063,-1.0629,0,-1.0373,-1.0406,-1.0437,-1.0466,-1.0487,-1.0526,-1.0529,-1.055,-1.0546,-1.0552,-1.0601,-1.0618,-1.0652,-1.0665,-1.0662,-1.0725,-1.0716,-1.07,-1.0671,-1.0728,-1.0753,-1.0763,-1.0633,-1.0633,-1.0632,-1.0631,0,0,-1.0464,-1.0489,-1.0501,-1.0514,-1.0537,-1.0563,-1.0602,-1.0633,-1.0653,-1.0675,-1.0709,-1.0755,-1.074,-1.0758,-1.0757,-1.0785,-1.0844,-1.0766,-1.0766,-1.0781,-1.0917,-1.093,-1.0942,-1.0837,-1.0839,-1.084,-1.0915,0,-1.0535,-1.0602,-1.0598,-1.0661,-1.0693,-1.0677,-1.0711,-1.073,-1.0736,-1.0765,-1.0772,-1.0805,-1.0782,-1.0794,-1.0821,-1.0831,-1.0872,-1.0825,-1.087,-1.0872,-1.0867,-1.0955,-1.0969,-1.1039,-1.0925,-1.0926,-1.0928,0,-1.0627,-1.065,-1.0716,-1.0734,-1.0747,-1.0778,-1.0807,-1.0833,-1.0854,-1.0857,-1.0877,-1.0871,-1.0912,-1.088,-1.0937,-1.0906,-1.0924,-1.0931,-1.0934,-1.094,-1.0905,-1.0965,-1.1061,-1.1072,-1.0943,-1.0941,-1.094,0,-1.0689,-1.0737,-1.0783,-1.0794,-1.0816,-1.0838,-1.0849,-1.0867,-1.0886,-1.0912,-1.0924,-1.0954,-1.0972,-1.0996,-1.0998,-1.0974,-1.1056,-1.1024,-1.1061,-1.1062,-1.1081,-1.108,-1.1184,-1.109,-1.1089,-1.1089,-1.1089,0,-1.0769,-1.0811,-1.0811,-1.0839,-1.0885,-1.0881,-1.0928,-1.0936,-1.0953,-1.0984,-1.0972,-1.1001,-1.1001,-1.1032,-1.1034,-1.1082,-1.1089,-1.1094,-1.1095,-1.1096,-1.1096,-1.111,-1.1106,-1.1092,-1.1091,-1.1091,-1.109,0,-1.0847,-1.0849,-1.0898,-1.0914,-1.0919,-1.0952,-1.0967,-1.0994,-1.0999,-1.1038,-1.1047,-1.1055,-1.109,-1.1094,-1.1135,-1.1137,-1.1195,-1.1189,-1.1188,-1.1188,-1.1225,-1.1222,-1.1343,-1.1359,-1.1252,-1.1253,-1.1254,0,-1.09,-1.0931,-1.095,-1.0969,-1.098,-1.1011,-1.103,-1.1027,-1.1047,-1.1073,-1.1098,-1.1132,-1.1159,-1.1216,-1.1226,-1.1258,-1.1254,-1.1294,-1.1259,-1.126,-1.1257,-1.1256,-1.126,-1.1302,-1.1303,-1.1304,-1.1305,0,-1.0993,-1.0992,-1.1019,-1.1046,-1.1069,-1.1091,-1.1111,-1.1128,-1.1127,-1.1151,-1.1186,-1.1207,-1.1248,-1.1283,-1.1313,-1.1326,-1.1316,-1.1315,-1.1326,-1.1329,-1.1328,-1.1331,-1.1208,-1.1313,-1.1312,-1.1312,-1.1311,-1.1311,-1.1061,-1.1088,-1.1106,-1.1136,-1.1151,-1.117,-1.1197,-1.1204,-1.1232,-1.1265,-1.1262,-1.1301,-1.1321,-1.1362,-1.1376,-1.1408,-1.1395,-1.141,-1.1414,-1.1418,-1.1423,-1.132,-1.1413,-1.1413,-1.1413,-1.1412,-1.1412,0,-1.1155,-1.1165,-1.1193,-1.1221,-1.1246,-1.1232,-1.1253,-1.1275,-1.1309,-1.1328,-1.1354,-1.1395,-1.1428,-1.144,-1.1473,-1.1496,-1.1492,-1.1505,-1.1504,-1.1507,-1.1431,-1.142,-1.1507,-1.1507,-1.1507,-1.1507,-1.1507,-1.1507,-1.1207,-1.1253,-1.1254,-1.1307,-1.1317,-1.1354,-1.1368,-1.1386,-1.1401,-1.1446,-1.1473,-1.148,-1.1497,-1.153,-1.156,-1.1563,-1.1576,-1.1591,-1.1592,-1.1522,-1.1512,-1.1503,-1.1493,-1.1594,-1.1594,-1.1666,-1.1666,-1.1667]},{"header":{"parameterUnit":"m.s-1","parameterCategory":1,"la1":30.2991,"la2":30.254,"lo1":-89.0895,"lo2":-89.0444,"dy":0.0017,"dx":0.0017,"nx":28,"ny":28,"refTime":"2025-01-13T09:00:00:Z","depth":0,"parameterNumber":3,"parameterNumberName":"V-component_of_WINDS"},"data":[0,0,0,0,0,0,0,0,0,0,0,0,0,0,0,0,0,0,0,0,0,0,0,0,0,0,0,0,0,0,0,0,0,0,0,0,0,0,0,0,0,0,0,0,0,0,0,0,0,0,0,0,0,0,0,0,0,0,-6.4566,-6.4567,0,-6.4624,-6.4625,-6.4625,-6.4523,-6.452,-6.4516,-6.4513,-6.4567,-6.4572,-6.4576,0,0,0,0,0,0,0,0,0,0,0,0,0,-6.4363,-6.4367,-6.4566,-6.4567,-6.4568,-6.4624,-6.4625,-6.4625,-6.4524,-6.452,-6.4516,-6.4512,-6.4566,-6.4571,-6.4577,0,0,0,0,0,0,0,0,0,0,0,0,0,-6.4439,-6.4369,-6.4566,-6.4524,-6.4521,-6.4624,-6.4625,-6.4626,-6.4525,-6.452,-6.4515,-6.451,-6.4564,-6.4571,-6.4578,-6.4723,0,0,-6.4599,-6.4602,0,0,0,0,0,0,0,0,-6.4435,-6.4446,-6.4529,-6.4527,-6.4524,-6.4561,-6.4573,-6.4658,-6.4526,-6.4523,-6.4513,-6.4507,-6.4569,-6.4575,-6.4597,-6.4725,-6.4728,-6.4599,-6.4604,-6.4607,-6.4609,0,0,0,0,0,0,0,-6.443,-6.4443,-6.4589,-6.4531,-6.4527,-6.45,-6.4506,-6.4588,-6.4574,-6.4523,-6.4516,-6.4524,-6.4567,-6.4591,-6.4598,-6.4729,-6.4599,-6.4605,-6.461,-6.4612,-6.4979,-6.4984,0,0,0,0,0,0,-6.443,-6.444,-6.4587,-6.4591,-6.4466,-6.4508,-6.4514,-6.4554,-6.4573,-6.4571,-6.4529,-6.4519,-6.4582,-6.459,-6.4599,-6.4771,-6.4607,-6.4613,-6.4617,-6.4973,-6.498,-6.4986,0,0,0,0,0,0,-6.4426,-6.4444,-6.4585,-6.4513,-6.4529,-6.4517,-6.4563,-6.4558,-6.4582,-6.4577,-6.4573,-6.4557,-6.4578,-6.459,-6.4693,-6.4771,-6.4616,-6.4622,-6.4967,-6.4975,-6.4983,-6.5116,0,0,0,0,0,0,-6.4421,-6.4444,-6.45,-6.4515,-6.4533,-6.468,-6.4568,-6.4563,-6.4595,-6.4584,-6.4602,-6.46,-6.4575,-6.4684,-6.47,-6.4778,-6.4628,-6.4959,-6.497,-6.498,-6.5104,-6.5128,-6.5148,0,0,0,0,0,-6.4414,-6.4534,-6.4503,-6.4522,-6.4604,-6.4685,-6.4695,-6.4664,-6.4602,-6.4658,-6.4654,-6.46,-6.476,-6.4695,-6.4713,-6.4794,-6.4954,-6.4967,-6.4979,-6.5095,-6.5123,-6.5147,0,0,0,0,0,0,-6.4526,-6.4535,-6.4501,-6.463,-6.4658,-6.4667,-6.4737,-6.4695,-6.4739,-6.4726,-6.4685,-6.469,-6.4802,-6.4808,-6.4735,-6.4936,-6.4847,-6.4863,-6.4928,-6.4955,-6.4976,-6.4973,-6.4634,0,0,0,0,0,-6.4566,-6.4633,-6.4636,-6.4749,-6.4765,-6.4749,-6.4783,-6.4757,-6.4783,-6.4794,-6.4797,-6.4824,-6.4879,-6.4917,-6.4968,-6.5104,-6.5107,-6.5169,-6.519,-6.5208,-6.5223,-6.5296,-6.5324,-6.5027,-6.5027,-6.5027,0,0,-6.4649,-6.4662,-6.4706,-6.4772,-6.479,-6.4859,-6.4759,-6.4836,-6.4886,-6.4804,-6.4904,-6.4907,-6.4933,-6.5054,-6.5107,-6.5063,-6.5306,-6.5224,-6.5239,-6.5244,-6.5312,-6.534,-6.5365,-6.5035,-6.5034,-6.5033,0,0,-6.4835,-6.4852,-6.4949,-6.4969,-6.4999,-6.4987,-6.5011,-6.5027,-6.5027,-6.5126,-6.5067,-6.5124,-6.5222,-6.5243,-6.5266,-6.5461,-6.5413,-6.5478,-6.5592,-6.5663,-6.5686,-6.5707,-6.5777,-6.5802,-6.5493,-6.5494,-6.5494,0,-6.4934,-6.5037,-6.5003,-6.5084,-6.5115,-6.5046,-6.5143,-6.5164,-6.5208,-6.523,-6.5179,-6.5301,-6.5313,-6.5438,-6.5486,-6.5507,-6.5532,-6.5477,-6.5686,-6.5706,-6.5725,-6.5791,-6.5817,-6.5502,-6.5501,-6.55,-6.5499,0,-6.5157,-6.5229,-6.5303,-6.535,-6.5388,-6.5477,-6.5455,-6.5498,-6.5469,-6.5462,-6.5563,-6.5576,-6.5629,-6.5656,-6.5627,-6.5777,-6.5749,-6.5693,-6.5603,-6.5762,-6.5823,-6.5848,-6.5513,-6.551,-6.5508,-6.5506,0,0,-6.5415,-6.5443,-6.5471,-6.5492,-6.5519,-6.5573,-6.5658,-6.5712,-6.5749,-6.5781,-6.5851,-6.5936,-6.5884,-6.5911,-6.5884,-6.5946,-6.61,-6.5882,-6.5882,-6.5923,-6.6266,-6.6309,-6.6339,-6.6068,-6.6073,-6.6076,-6.6264,0,-6.5601,-6.575,-6.5723,-6.5867,-6.5933,-6.5868,-6.5942,-6.5966,-6.5962,-6.6016,-6.601,-6.6071,-6.5998,-6.6014,-6.6073,-6.6069,-6.6169,-6.6055,-6.6132,-6.6135,-6.6129,-6.6371,-6.6417,-6.6594,-6.6288,-6.6292,-6.6295,0,-6.5838,-6.5882,-6.6034,-6.6052,-6.6078,-6.6145,-6.6192,-6.6245,-6.627,-6.6263,-6.6294,-6.6255,-6.6337,-6.6246,-6.6359,-6.6282,-6.6312,-6.6314,-6.632,-6.6327,-6.6226,-6.6385,-6.6649,-6.6677,-6.6332,-6.6329,-6.6327,0,-6.6013,-6.6109,-6.6213,-6.6232,-6.6255,-6.6304,-6.6316,-6.6336,-6.637,-6.641,-6.6432,-6.6481,-6.6507,-6.6545,-6.652,-6.6456,-6.6638,-6.6544,-6.6633,-6.6634,-6.6675,-6.6673,-6.6949,-6.6693,-6.6693,-6.6692,-6.6692,0,-6.6224,-6.632,-6.6292,-6.6356,-6.6461,-6.6427,-6.6531,-6.6534,-6.6553,-6.6615,-6.6561,-6.662,-6.6583,-6.6639,-6.6619,-6.6716,-6.6728,-6.6724,-6.6717,-6.6729,-6.673,-6.6749,-6.6736,-6.6699,-6.6698,-6.6696,-6.6695,0,-6.6437,-6.6423,-6.6532,-6.6545,-6.6551,-6.6627,-6.6638,-6.6696,-6.6688,-6.6768,-6.6784,-6.6771,-6.6834,-6.6812,-6.6878,-6.6865,-6.6989,-6.6966,-6.6982,-6.6976,-6.7067,-6.706,-6.7365,-6.7404,-6.7123,-6.7125,-6.7128,0,-6.6574,-6.6646,-6.6668,-6.6707,-6.6723,-6.6786,-6.6821,-6.679,-6.6828,-6.6863,-6.6917,-6.6976,-6.7021,-6.7124,-6.7119,-6.7169,-6.7148,-6.7252,-6.7155,-6.7165,-6.7151,-6.7147,-6.7154,-6.7271,-6.7275,-6.7277,-6.7279,0,-6.6817,-6.6807,-6.6861,-6.6913,-6.6957,-6.6995,-6.7029,-6.7063,-6.7033,-6.7079,-6.7144,-6.7179,-6.7248,-6.7306,-6.7352,-6.7361,-6.7316,-6.731,-6.7333,-6.7347,-6.7353,-6.7352,-6.7035,-6.7303,-6.7301,-6.7299,-6.7298,-6.7297,-6.6997,-6.7059,-6.7084,-6.7146,-6.7168,-6.7201,-6.7257,-6.7257,-6.7311,-6.7366,-6.7343,-6.7418,-6.744,-6.7497,-6.7513,-6.757,-6.753,-6.7564,-6.7572,-6.7582,-6.7594,-6.7343,-6.7578,-6.7577,-6.7576,-6.7576,-6.7575,0,-6.7239,-6.7252,-6.7309,-6.7359,-6.7408,-6.7362,-6.7396,-6.7439,-6.7507,-6.7532,-6.7579,-6.7653,-6.7709,-6.7709,-6.7761,-6.7807,-6.7787,-6.7821,-6.7818,-6.7821,-6.7626,-6.7601,-6.7836,-6.7836,-6.7836,-6.7836,-6.7836,-6.7836,-6.737,-6.7473,-6.7465,-6.7578,-6.7589,-6.7664,-6.7688,-6.7717,-6.7738,-6.7824,-6.7871,-6.7871,-6.7887,-6.7939,-6.7989,-6.7987,-6.8009,-6.8052,-6.8043,-6.7861,-6.7835,-6.781,-6.7786,-6.8057,-6.8057,-6.8232,-6.8234,-6.8235]}]]